Hourly Data Report for June 06, 2019

BORDEN AWOS
ONTARIO
Current Station Operator: DND

44°16'20.000" N
79°54'42.000" W
222.50 m
611B002
71534
YBN

Download Data

Hourly Data (June 2019)
Hourly Data Report for June 6, 2019
TIME
LST
Temp Definition
°C
Dew Point Definition
°C
Rel Hum Definition
%
Precip. Amount Definition
mm

Wind Dir Definition
10's deg

Wind Spd Definition
km/h
Visibility Definition
km
Stn Press Definition
kPa
Hmdx Definition


Wind Chill Definition


Weather Definition


00:00 13.2 13.2 100   32 4 0.5 98.16     LegendNANA
01:00 13.3 13.3 100   33 4 0.6 98.19     Drizzle
02:00 13.3 13.3 100   34 7 0.6 98.21     LegendNANA
03:00 12.0 12.0 100   34 9 1.1 98.23     LegendNANA
04:00 11.2 11.2 100   32 4 1.1 98.30     LegendNANA
05:00 11.4 11.4 100   30 4 1.1 98.40     LegendNANA
06:00 11.6 11.6 100   34 6 12.9 98.45     LegendNANA
07:00 12.8 12.8 100   36 11 14.5 98.50     LegendNANA
08:00 14.0 13.3 96   3 11 14.5 98.53     LegendNANA
09:00 15.1 11.9 81   36 9 14.5 98.54     LegendNANA
10:00 18.0 11.3 65   1 7 14.5 98.56     LegendNANA
11:00 20.3 11.4 57   35 7 14.5 98.60     LegendNANA
12:00 21.2 9.3 47   1 9 14.5 98.58     LegendNANA
13:00 21.9 9.6 46   3 11 14.5 98.60     LegendNANA
14:00 23.2 8.2 38   32 7 14.5 98.58     LegendNANA
15:00 22.9 7.8 38   33 11 14.5 98.59     LegendNANA
16:00 21.9 8.0 41   36 15 14.5 98.61     LegendNANA
17:00 21.6 8.5 43   35 11 14.5 98.61     LegendNANA
18:00 19.9 8.5 48   36 11 14.5 98.63     LegendNANA
19:00 18.0 8.8 55   32 7 14.5 98.64     LegendNANA
20:00 15.2 7.4 60   32 4 14.5 98.68     LegendNANA
21:00 12.6 7.8 73   31 7 14.5 98.73     LegendNANA
22:00 9.7 8.0 89   20 6 14.5 98.74     LegendNANA
23:00 8.3 7.2 93     0 14.5 98.73     LegendNANA

Notes on Data Quality.

Legend

  • E = Estimated
  • M = Missing
  • NA = Not Available*
  • [empty] = Indicates an unobserved value
Date modified: